This is the latest recevied weather packets stored in our database for station/object Kisslegg. If no packets are shown the sender has not sent any weather packets the latest 10 day(s).
| Time | Temp. | Humidity | Pressure | Rain* | Wind** | Luminosity | Snow |
|---|---|---|---|---|---|---|---|
| 1787972530 | 12.78° C | 96% | 1016.2 hPa | 0 mm | - | - | - |
| 1787970729 | 13.33° C | 96% | 1016.1 hPa | 0 mm | - | - | - |
| 1787968929 | 13.33° C | 96% | 1016 hPa | 0 mm | - | - | - |
| 1787967131 | 13.33° C | 96% | 1016 hPa | 0 mm | - | - | - |
| 1787965329 | 13.33° C | 96% | 1016.3 hPa | 0 mm | - | - | - |
| 1787963531 | 13.33° C | 96% | 1016.3 hPa | 0 mm | - | - | - |
| 1787961731 | 13.33° C | 96% | 1016.3 hPa | 0 mm | - | - | - |
| 1787959931 | 13.33° C | 95% | 1016.4 hPa | 0 mm | - | - | - |
| 1787958131 | 13.33° C | 95% | 1016.2 hPa | 0 mm | - | - | - |
| 1787956331 | 13.89° C | 95% | 1016.1 hPa | 0 mm | - | - | - |
| 1787954531 | 14.44° C | 95% | 1016 hPa | 0 mm | - | - | - |
| 1787952731 | 14.44° C | 95% | 1016.2 hPa | 0.51 mm | - | - | - |
| 1787950930 | 15° C | 94% | 1016.3 hPa | 0.51 mm | - | - | - |
| 1787949131 | 15° C | 94% | 1015.2 hPa | 0.51 mm | - | - | - |
| 1787947330 | 16.11° C | 93% | 1015.9 hPa | 0.51 mm | - | - | - |
| 1787945531 | 16.11° C | 91% | 1015 hPa | 0.51 mm | - | - | - |
| 1787943732 | 16.11° C | 90% | 1014.5 hPa | 0.51 mm | - | - | - |
| 1787941930 | 17.22° C | 91% | 1013.9 hPa | 0.51 mm | - | - | - |
| 1787940131 | 17.78° C | 91% | 1013.7 hPa | 0.51 mm | - | - | - |
| 1787938330 | 17.78° C | 89% | 1013 hPa | 0.51 mm | - | - | - |
| 1787936532 | 18.33° C | 87% | 1012.9 hPa | 0.51 mm | - | - | - |
| 1787934731 | 18.33° C | 85% | 1013.2 hPa | 0.51 mm | - | - | - |
| 1787932931 | 18.89° C | 83% | 1012 hPa | 0.51 mm | - | - | - |
| 1787931130 | 19.44° C | 83% | 1012 hPa | 0.51 mm | - | - | - |
| 1787929330 | 18.33° C | 88% | 1012.1 hPa | 0.51 mm | - | - | - |
* Rain since midnight (hover to see other rain measurements)
** Current wind speed in m/s (hover to see current wind gust speed)